SWARM A (39452 NORAD) Tracking and Keplerian Element Data

This shows tracking and keplerian element data for the satellite.

Feedback or suggestion? Click here.




ElementValue
Catalog39452
NameSWARM A
Epoch Orbit27964
Epoch Day318.86916708
Epoch Year2018
RAAN342.3868
Inclination87.3457
Eccentricity0.0003401
Argument of Perigee95.0822
Mean Anonmoly265.0823
Mean Motion15.43456797
Decay Rate1.022E-05
L11 39452U 13067B 18318.86916708 .00001022 00000-0 21815-4 0 9992
L22 39452 87.3457 342.3868 0003401 95.0822 265.0823 15.43456797279642

Live tracking and technical data element details for SWARM A (NORAD 39452). SWARM A can be tracked NOW for your location showing map with azimuth and elevation plus other details from your city location.

Track the satellite on the map from your city or location and see movement details for azimuth, elevation, latitude, longitude, range, height, and movement on the map or in text.







IsCatalogInMostPopularTable: catalog: 39452, numindb: 111
Update: records affected: 1



GetName: 39452 SWARM A

Hit Count: updated at: Fri, 16 Nov 2018 05:48:21 GMT